Regional Weather Roundup
Issued by NWS Northern Indiana

Home | Current Version | Previous Version | Graphics & Text | Print | Product List | Glossary On
Versions: 1 2 3 4 5 6 7 8 9 10 11 12 13 14 15 16 17 18 19 20 21 22 23 24 25 26 27 28 29 30 31 32 33 34 35 36 37 38 39 40 41 42 43 44 45 46 47 48 49 50
000
ASUS43 KIWX 030310
RWRIWX

KIWX WEATHER ROUNDUP
NATIONAL WEATHER SERVICE NORTHERN INDIANA
1100 PM EDT SAT MAY 02 2015

NOTE: "FAIR" INDICATES FEW OR NO CLOUDS BELOW 12,000 FEET WITH NO
SIGNIFICANT WEATHER AND/OR OBSTRUCTIONS TO VISIBILITY.

* THESE STATIONS ARE NOT UNDER NWS QUALITY CONTROL. THEY ALSO MAY NOT
  REPORT WEATHER SUCH AS PRECIPITATION OR FOG.

INZ001>027-030400-
NORTHERN INDIANA

CITY           SKY/WX    TMP DP  RH WIND       PRES   REMARKS
GARY*          MOCLDY    64 N/A N/A VRB3      29.99R
VALPARAISO     MOCLDY    63  37  38 S3        30.01R
MICHIGAN CITY* MOCLDY    61  32  33 S3        30.00S
LAPORTE*       PTCLDY    61  40  47 CALM      30.01S
KNOX*          MOCLDY    59  18  20 S9        30.00S
SOUTH BEND     PTCLDY    60  39  45 CALM      30.01S
GOSHEN         CLEAR     61  39  44 S7        30.01S
MONTICELLO*    MOCLDY    61  43  51 S6        30.02S
LOGANSPORT*    MOCLDY    55  39  54 S6        30.04S
ROCHESTER*     PTCLDY    64  39  39 S6        30.03S
WARSAW*        PTCLDY    59  41  51 CALM      30.03S
ANGOLA*        CLEAR     55  43  62 CALM      30.03S
FORT WAYNE     PTCLDY    58  45  62 S6        30.04S
HUNTINGTON*    PTCLDY    55  46  73 S3        30.03S
PERU/GRISSOM   PTCLDY    58  45  62 S7        30.03S
MARION*        MOCLDY    56  45  66 S3        30.05S

$$
INZ028>050-030400-
CENTRAL INDIANA

CITY           SKY/WX    TMP DP  RH WIND       PRES   REMARKS
LAFAYETTE      CLOUDY    63  41  44 SW5       30.03S
MUNCIE*        PTCLDY    58  45  62 S3        30.05S
INDIANAPOLIS   MOCLDY    61  43  51 SW6       30.04S

$$
MIZ043>046-050>051-056>058-064>065-071>073-077>080-030400-
SOUTHWEST LOWER MICHIGAN

CITY           SKY/WX    TMP DP  RH WIND       PRES   REMARKS
BATTLE CREEK   CLEAR     57  41  55 SE6       30.01F
BENTON HARBOR  PTCLDY    52  41  66 E3        29.99S
COLDWATER*     CLEAR     55  39  55 CALM      30.02S
HILLSDALE*     CLEAR     61  36  39 S3        30.03S
HOLLAND        CLEAR     56  39  53 SE5       29.99S
GRAND RAPIDS   CLEAR     56  34  43 S7        29.99S
KALAMAZOO      PTCLDY    57  38  48 CALM      30.01S
STURGIS*       PTCLDY    57  39  51 CALM      30.02S
THREE RIVERS*  FAIR      55  42  61 CALM      30.02S

$$
OHZ001>008-015>018-024>025-030400-
NORTHWEST OHIO

CITY           SKY/WX    TMP DP  RH WIND       PRES   REMARKS
WAUSEON*       FAIR      57  41  54 CALM      30.03S
DEFIANCE       CLEAR     59  41  51 CALM      30.03S
FINDLAY        CLEAR     61  42  49 CALM      30.04R
TOLEDO EXPRESS CLEAR     57  40  52 CALM      30.03R
TOLEDO METCALF CLEAR     61  39  44 SW7       30.03S
LIMA           CLEAR     60  42  51 SW5       30.06R

$$
AND FOR LAKE MICHIGAN COASTAL AND OPEN LAKE BUOY OBSERVATIONS

STATION/POSITION TEMP    WIND        PRES    VSBY  WAVE
                 AIR SEA DIR/SP/G                  HT/PER
                 (F)     (DEG/KT/KT) (MB)    (MI)  (FT/S)
CALUMET HARBOR    67     180/  3/  4   N/A
MICHIGAN CITY     69     170/ 10/ 12   N/A
BURNS HARBOR      67     190/  9/ 10 1015.9S
SAINT JOSEPH      64     120/  2/  4 1015.6F
4 MI NW BRIDGMAN  62 53  200/  4/  6   N/A           0
MICHIGAN CITY     62 51  200/  6/  6   N/A           0

$$
&&


USA.gov is the U.S. government's official web portal to all federal, state and local government web resources and services.